Weather past 2 weeks in Saint-Pierre, Saint Pierre and Miquelon

Now
37 °F

Chilly.


Feels Like: 26 °F
Forecast: 35 / 39 °F
Wind: 22 mph from West

Location: Saint-Pierre

Current Time: Dec 27, 2014 at 5:51:40 AM

Latest Report: Dec 27, 2014 at 5:00 AM


Visibility: 12 mi

Pressure: 29.70 "Hg

Humidity: 71%

Dew point: 28 °F

Location of Saint-PierreLocation

Historic Weather in Saint-Pierre — Graph

°F

Saint-Pierre temperature yesterday

Maximum temperature yesterday: 46 °F (at 1:00 AM)
Minimum temperature yesterday: 39 °F (at 7:00 PM)
Average temperature yesterday: 41 °F

Past Weeks' High & Low Weather Summary

 TemperatureHumidityPressure
High48 °F (Dec 13, 11:00 PM)100% (Dec 12, 4:00 AM)30.52 "Hg (Dec 12, 4:00 AM)
Low27 °F (Dec 22, 9:00 PM)63% (Dec 20, 9:00 PM)29.26 "Hg (Dec 19, 5:00 AM)
Average37 °F90%29.99 "Hg
* Reported Dec 12 4:00 AM — Dec 27 4:00 AM, Saint-Pierre, Weather by CustomWeather, © 2014

Note: Actual official high and low records may vary slightly from our data, if they occured in-between our weather recording intervals... More about our weather records

Advertising

Saint-Pierre weather history for previous 24 hours

 ConditionsComfort  
Time TempWeatherWind HumidityBarometerVisibility
4:00 AM
Dec 27
37 °FOvercast.25 mph71%29.71 "Hg11 mi
3:00 AM38 °FPassing clouds.24 mph68%29.70 "Hg12 mi
2:00 AM38 °FOvercast.24 mph71%29.69 "Hg12 mi
1:00 AM38 °FOvercast.24 mph75%29.69 "Hg12 mi
11:00 PM
Dec 26
39 °FOvercast.25 mph65%29.70 "Hg37 mi
10:00 PM39 °FOvercast.24 mph64%29.70 "Hg37 mi
9:00 PM39 °FOvercast.24 mph65%29.69 "Hg25 mi
8:00 PM39 °FOvercast.25 mph69%29.69 "Hg25 mi
7:00 PM39 °FOvercast.22 mph74%29.68 "Hg12 mi
5:00 PM39 °FOvercast.22 mph73%29.66 "Hg16 mi
4:00 PM40 °FOvercast.20 mph80%29.64 "Hg16 mi
3:00 PM40 °FOvercast.18 mph85%29.62 "Hg16 mi
2:00 PM41 °FOvercast.18 mph82%29.61 "Hg16 mi
1:00 PM41 °FOvercast.21 mph85%29.61 "Hg16 mi
11:00 AM42 °FPassing clouds.17 mph90%29.62 "Hg12 mi
10:00 AM41 °FPassing clouds.18 mph93%29.61 "Hg12 mi
9:00 AM39 °FPassing clouds.15 mph98%29.60 "Hg12 mi
8:00 AM39 °FPassing clouds.N/A99%29.59 "Hg12 mi
7:00 AM39 °FPassing clouds.8 mph100%29.56 "Hg12 mi
5:00 AM43 °FLow clouds.21 mph100%29.53 "Hg3 mi
Weather by CustomWeather, © 2014

See weather overviewHow to use our weather pages